Year,Month,Day,Hour,Minute,Value (Times are PST for windspeed in km/hr)
2017,05,24,00,00,3.90
2017,05,24,00,01,4.20
2017,05,24,00,02,3.90
2017,05,24,00,03,3.90
2017,05,24,00,04,4.90
2017,05,24,00,05,4.10
2017,05,24,00,06,4.50
2017,05,24,00,07,5.90
2017,05,24,00,08,3.90
2017,05,24,00,09,0.30
2017,05,24,00,10,4.40
2017,05,24,00,11,3.90
2017,05,24,00,12,1.20
2017,05,24,00,13,1.70
2017,05,24,00,14,3.50
2017,05,24,00,15,5.10
2017,05,24,00,16,1.60
2017,05,24,00,17,3.50
2017,05,24,00,18,8.50
2017,05,24,00,19,5.80
2017,05,24,00,20,4.50
2017,05,24,00,21,5.10
2017,05,24,00,22,7.10
2017,05,24,00,23,9.90
2017,05,24,00,24,13.00
2017,05,24,00,25,9.50
2017,05,24,00,26,8.00
2017,05,24,00,27,7.40
2017,05,24,00,28,8.60
2017,05,24,00,29,7.80
2017,05,24,00,30,11.40
2017,05,24,00,31,9.30
2017,05,24,00,32,4.30
2017,05,24,00,33,10.40
2017,05,24,00,34,5.30
2017,05,24,00,35,6.70
2017,05,24,00,36,3.70
2017,05,24,00,37,6.20
2017,05,24,00,38,8.70
2017,05,24,00,39,3.20
2017,05,24,00,40,2.20
2017,05,24,00,41,5.40
2017,05,24,00,42,2.80
2017,05,24,00,43,3.70
2017,05,24,00,44,0.60
2017,05,24,00,45,2.30
2017,05,24,00,46,5.50
2017,05,24,00,47,4.80
2017,05,24,00,48,2.70
2017,05,24,00,49,1.10
2017,05,24,00,50,0.50
2017,05,24,00,51,1.00
2017,05,24,00,52,4.10
2017,05,24,00,53,3.10
2017,05,24,00,54,3.20
2017,05,24,00,55,4.70
2017,05,24,00,56,6.00
2017,05,24,00,57,5.60
2017,05,24,00,58,3.40
2017,05,24,00,59,2.30
2017,05,24,01,00,2.50
2017,05,24,01,01,0.80
2017,05,24,01,02,3.80
2017,05,24,01,03,4.30
2017,05,24,01,04,2.70
2017,05,24,01,05,2.00
2017,05,24,01,06,2.20
2017,05,24,01,07,2.00
2017,05,24,01,08,5.30
2017,05,24,01,09,3.40
2017,05,24,01,10,0.20
2017,05,24,01,11,0.50
2017,05,24,01,12,1.60
2017,05,24,01,13,2.10
2017,05,24,01,14,2.80
2017,05,24,01,15,1.40
2017,05,24,01,16,2.10
2017,05,24,01,17,1.40
2017,05,24,01,18,1.50
2017,05,24,01,19,2.00
2017,05,24,01,20,2.70
2017,05,24,01,21,2.40
2017,05,24,01,22,1.70
2017,05,24,01,23,2.50
2017,05,24,01,24,1.20
2017,05,24,01,25,2.60
2017,05,24,01,26,4.80
2017,05,24,01,27,4.30
2017,05,24,01,28,10.40
2017,05,24,01,29,4.70
2017,05,24,01,30,5.80
2017,05,24,01,31,6.00
2017,05,24,01,32,2.30
2017,05,24,01,33,7.80
2017,05,24,01,34,8.50
2017,05,24,01,35,4.70
2017,05,24,01,36,3.10
2017,05,24,01,37,4.70
2017,05,24,01,38,2.30
2017,05,24,01,39,0.60
2017,05,24,01,40,3.90
2017,05,24,01,41,2.00
2017,05,24,01,42,4.60
2017,05,24,01,43,4.00
2017,05,24,01,44,0.40
2017,05,24,01,45,3.40
2017,05,24,01,46,3.80
2017,05,24,01,47,3.50
2017,05,24,01,48,2.10
2017,05,24,01,49,0.10
2017,05,24,01,50,0.60
2017,05,24,01,51,0.00
2017,05,24,01,52,0.00
2017,05,24,01,53,1.00
2017,05,24,01,54,2.10
2017,05,24,01,55,5.20
2017,05,24,01,56,1.90
2017,05,24,01,57,1.60
2017,05,24,01,58,6.00
2017,05,24,01,59,4.80
2017,05,24,02,00,4.70
2017,05,24,02,01,4.80
2017,05,24,02,02,7.20
2017,05,24,02,03,2.80
2017,05,24,02,04,1.90
2017,05,24,02,05,1.60
2017,05,24,02,06,2.50
2017,05,24,02,07,5.20
2017,05,24,02,08,2.70
2017,05,24,02,09,0.50
2017,05,24,02,10,2.40
2017,05,24,02,11,1.90
2017,05,24,02,12,1.70
2017,05,24,02,13,6.40
2017,05,24,02,14,5.60
2017,05,24,02,15,1.00
2017,05,24,02,16,0.20
2017,05,24,02,17,3.00
2017,05,24,02,18,1.50
2017,05,24,02,19,0.60
2017,05,24,02,20,1.00
2017,05,24,02,21,0.00
2017,05,24,02,22,0.00
2017,05,24,02,23,0.00
2017,05,24,02,24,0.80
2017,05,24,02,25,0.00
2017,05,24,02,26,0.20
2017,05,24,02,27,1.10
2017,05,24,02,28,0.00
2017,05,24,02,29,4.00
2017,05,24,02,30,0.10
2017,05,24,02,31,0.20
2017,05,24,02,32,3.50
2017,05,24,02,33,2.70
2017,05,24,02,34,0.70
2017,05,24,02,35,0.20
2017,05,24,02,36,0.10
2017,05,24,02,37,0.40
2017,05,24,02,38,1.00
2017,05,24,02,39,0.10
2017,05,24,02,40,0.60
2017,05,24,02,41,0.20
2017,05,24,02,42,6.20
2017,05,24,02,43,3.70
2017,05,24,02,44,3.60
2017,05,24,02,45,0.50
2017,05,24,02,46,0.30
2017,05,24,02,47,2.60
2017,05,24,02,48,1.50
2017,05,24,02,49,0.60
2017,05,24,02,50,2.50
2017,05,24,02,51,5.00
2017,05,24,02,52,6.00
2017,05,24,02,53,3.10
2017,05,24,02,54,1.00
2017,05,24,02,55,4.20
2017,05,24,02,56,3.00
2017,05,24,02,57,3.70
2017,05,24,02,58,3.20
2017,05,24,02,59,0.60
2017,05,24,03,00,0.30
2017,05,24,03,01,2.20
2017,05,24,03,02,5.10
2017,05,24,03,03,3.80
2017,05,24,03,04,0.30
2017,05,24,03,05,2.70
2017,05,24,03,06,3.40
2017,05,24,03,07,1.00
2017,05,24,03,08,1.90
2017,05,24,03,09,3.00
2017,05,24,03,10,3.00
2017,05,24,03,11,4.10
2017,05,24,03,12,6.60
2017,05,24,03,13,4.30
2017,05,24,03,14,4.30
2017,05,24,03,15,7.10
2017,05,24,03,16,2.40
2017,05,24,03,17,4.00
2017,05,24,03,18,1.50
2017,05,24,03,19,2.90
2017,05,24,03,20,5.40
2017,05,24,03,21,6.40
2017,05,24,03,22,7.60
2017,05,24,03,23,5.10
2017,05,24,03,24,4.50
2017,05,24,03,25,10.10
2017,05,24,03,26,7.60
2017,05,24,03,27,8.60
2017,05,24,03,28,10.00
2017,05,24,03,29,7.30
2017,05,24,03,30,14.40
2017,05,24,03,31,8.10
2017,05,24,03,32,6.40
2017,05,24,03,33,6.70
2017,05,24,03,34,6.80
2017,05,24,03,35,9.50
2017,05,24,03,36,8.00
2017,05,24,03,37,5.10
2017,05,24,03,38,6.20
2017,05,24,03,39,7.00
2017,05,24,03,40,4.30
2017,05,24,03,41,5.10
2017,05,24,03,42,4.00
2017,05,24,03,43,2.00
2017,05,24,03,44,4.00
2017,05,24,03,45,4.50
2017,05,24,03,46,1.50
2017,05,24,03,47,4.80
2017,05,24,03,48,4.70
2017,05,24,03,49,4.60
2017,05,24,03,50,1.90
2017,05,24,03,51,6.50
2017,05,24,03,52,4.10
2017,05,24,03,53,9.80
2017,05,24,03,54,6.90
2017,05,24,03,55,2.80
2017,05,24,03,56,1.80
2017,05,24,03,57,2.40
2017,05,24,03,58,6.90
2017,05,24,03,59,4.20
2017,05,24,04,00,3.70
2017,05,24,04,01,7.40
2017,05,24,04,02,1.40
2017,05,24,04,03,1.40
2017,05,24,04,04,2.40
2017,05,24,04,05,3.30
2017,05,24,04,06,6.00
2017,05,24,04,07,3.90
2017,05,24,04,08,3.30
2017,05,24,04,09,4.50
2017,05,24,04,10,5.50
2017,05,24,04,11,3.90
2017,05,24,04,12,3.90
2017,05,24,04,13,3.30
2017,05,24,04,14,5.10
2017,05,24,04,15,2.90
2017,05,24,04,16,4.70
2017,05,24,04,17,5.20
2017,05,24,04,18,2.20
2017,05,24,04,19,5.30
2017,05,24,04,20,2.30
2017,05,24,04,21,4.90
2017,05,24,04,22,4.00
2017,05,24,04,23,5.60
2017,05,24,04,24,7.00
2017,05,24,04,25,6.50
2017,05,24,04,26,2.60
2017,05,24,04,27,3.80
2017,05,24,04,28,8.30
2017,05,24,04,29,8.40
2017,05,24,04,30,4.30
2017,05,24,04,31,1.20
2017,05,24,04,32,4.50
2017,05,24,04,33,3.80
2017,05,24,04,34,2.20
2017,05,24,04,35,2.30
2017,05,24,04,36,5.30
2017,05,24,04,37,8.90
2017,05,24,04,38,7.20
2017,05,24,04,39,4.10
2017,05,24,04,40,1.00
2017,05,24,04,41,3.90
2017,05,24,04,42,1.20
2017,05,24,04,43,5.40
2017,05,24,04,44,5.10
2017,05,24,04,45,4.70
2017,05,24,04,46,4.90
2017,05,24,04,47,3.50
2017,05,24,04,48,2.80
2017,05,24,04,49,1.40
2017,05,24,04,50,2.90
2017,05,24,04,51,3.10
2017,05,24,04,52,0.90
2017,05,24,04,53,1.90
2017,05,24,04,54,2.10
2017,05,24,04,55,0.20
2017,05,24,04,56,2.60
2017,05,24,04,57,1.00
2017,05,24,04,58,2.60
2017,05,24,04,59,1.70
2017,05,24,05,00,2.60
2017,05,24,05,01,0.40
2017,05,24,05,02,1.80
2017,05,24,05,03,0.10
2017,05,24,05,04,4.50
2017,05,24,05,05,2.50
2017,05,24,05,06,3.50
2017,05,24,05,07,1.50
2017,05,24,05,08,6.70
2017,05,24,05,09,4.80
2017,05,24,05,10,4.20
2017,05,24,05,11,0.80
2017,05,24,05,12,1.40
2017,05,24,05,13,2.50
2017,05,24,05,14,1.70
2017,05,24,05,15,0.60
2017,05,24,05,16,0.50
2017,05,24,05,17,2.30
2017,05,24,05,18,2.00
2017,05,24,05,19,0.20
2017,05,24,05,20,0.80
2017,05,24,05,21,0.10
2017,05,24,05,22,1.70
2017,05,24,05,23,3.80
2017,05,24,05,24,5.20
2017,05,24,05,25,3.30
2017,05,24,05,26,0.10
2017,05,24,05,27,1.70
2017,05,24,05,28,0.50
2017,05,24,05,29,1.90
2017,05,24,05,30,1.80
2017,05,24,05,31,0.20
2017,05,24,05,32,0.20
2017,05,24,05,33,1.00
2017,05,24,05,34,0.10
2017,05,24,05,35,0.60
2017,05,24,05,36,0.50
2017,05,24,05,37,2.50
2017,05,24,05,38,0.60
2017,05,24,05,39,0.30
2017,05,24,05,40,0.30
2017,05,24,05,41,0.00
2017,05,24,05,42,0.00
2017,05,24,05,43,0.30
2017,05,24,05,44,2.30
2017,05,24,05,45,4.70
2017,05,24,05,46,2.30
2017,05,24,05,47,1.80
2017,05,24,05,48,2.30
2017,05,24,05,49,1.30
2017,05,24,05,50,0.70
2017,05,24,05,51,0.70
2017,05,24,05,52,0.10
2017,05,24,05,53,0.00
2017,05,24,05,54,0.00
2017,05,24,05,55,0.00
2017,05,24,05,56,0.90
2017,05,24,05,57,1.50
2017,05,24,05,58,2.00
2017,05,24,05,59,2.10
2017,05,24,06,00,2.60
2017,05,24,06,01,0.30
2017,05,24,06,02,0.00
2017,05,24,06,03,0.00
2017,05,24,06,04,0.00
2017,05,24,06,05,0.00
2017,05,24,06,06,0.20
2017,05,24,06,07,0.00
2017,05,24,06,08,0.00
2017,05,24,06,09,0.00
2017,05,24,06,10,0.00
2017,05,24,06,11,0.00
2017,05,24,06,12,0.20
2017,05,24,06,13,0.30
2017,05,24,06,14,0.00
2017,05,24,06,15,0.10
2017,05,24,06,16,0.00
2017,05,24,06,17,0.00
2017,05,24,06,18,0.00
2017,05,24,06,19,0.00
2017,05,24,06,20,0.00
2017,05,24,06,21,0.00
2017,05,24,06,22,1.40
2017,05,24,06,23,0.20
2017,05,24,06,24,0.00
2017,05,24,06,25,2.40
2017,05,24,06,26,0.40
2017,05,24,06,27,1.40
2017,05,24,06,28,3.00
2017,05,24,06,29,0.30
2017,05,24,06,30,1.90
2017,05,24,06,31,1.30
2017,05,24,06,32,1.50
2017,05,24,06,33,1.90
2017,05,24,06,34,0.50
2017,05,24,06,35,0.00
2017,05,24,06,36,0.70
2017,05,24,06,37,3.40
2017,05,24,06,38,0.90
2017,05,24,06,39,0.90
2017,05,24,06,40,0.20
2017,05,24,06,41,0.10
2017,05,24,06,42,0.40
2017,05,24,06,43,0.00
2017,05,24,06,44,0.10
2017,05,24,06,45,0.20
2017,05,24,06,46,0.70
2017,05,24,06,47,0.00
2017,05,24,06,48,0.10
2017,05,24,06,49,0.10
2017,05,24,06,50,1.70
2017,05,24,06,51,0.80
2017,05,24,06,52,1.90
2017,05,24,06,53,3.90
2017,05,24,06,54,0.80
2017,05,24,06,55,0.00
2017,05,24,06,56,1.10
2017,05,24,06,57,3.80
2017,05,24,06,58,5.60
2017,05,24,06,59,2.70
2017,05,24,07,00,0.10
2017,05,24,07,01,0.70
2017,05,24,07,02,0.20
2017,05,24,07,03,0.00
2017,05,24,07,04,0.10
2017,05,24,07,05,0.00
2017,05,24,07,06,0.00
2017,05,24,07,07,0.00
2017,05,24,07,08,0.00
2017,05,24,07,09,0.10
2017,05,24,07,10,1.10
2017,05,24,07,11,0.10
2017,05,24,07,12,0.00
2017,05,24,07,13,1.70
2017,05,24,07,14,0.30
2017,05,24,07,15,0.40
2017,05,24,07,16,0.00
2017,05,24,07,17,0.50
2017,05,24,07,18,0.00
2017,05,24,07,19,0.90
2017,05,24,07,20,1.70
2017,05,24,07,21,1.90
2017,05,24,07,22,1.10
2017,05,24,07,23,1.00
2017,05,24,07,24,1.10
2017,05,24,07,25,2.80
2017,05,24,07,26,1.70
2017,05,24,07,27,2.20
2017,05,24,07,28,1.60
2017,05,24,07,29,3.60
2017,05,24,07,30,0.70
2017,05,24,07,31,2.20
2017,05,24,07,32,2.60
2017,05,24,07,33,3.90
2017,05,24,07,34,1.10
2017,05,24,07,35,0.00
2017,05,24,07,36,1.00
2017,05,24,07,37,3.60
2017,05,24,07,38,3.90
2017,05,24,07,39,2.10
2017,05,24,07,40,3.20
2017,05,24,07,41,0.90
2017,05,24,07,42,2.00
2017,05,24,07,43,2.30
2017,05,24,07,44,1.70
2017,05,24,07,45,1.20
2017,05,24,07,46,0.70
2017,05,24,07,47,0.30
2017,05,24,07,48,0.00
2017,05,24,07,49,0.30
2017,05,24,07,50,1.50
2017,05,24,07,51,2.60
2017,05,24,07,52,7.10
2017,05,24,07,53,1.90
2017,05,24,07,54,1.60
2017,05,24,07,55,0.30
2017,05,24,07,56,4.80
2017,05,24,07,57,1.90
2017,05,24,07,58,1.20
2017,05,24,07,59,1.80
2017,05,24,08,00,0.80
2017,05,24,08,01,6.80
2017,05,24,08,02,3.90
2017,05,24,08,03,5.10
2017,05,24,08,04,3.80
2017,05,24,08,05,4.70
2017,05,24,08,06,5.00
2017,05,24,08,07,2.20
2017,05,24,08,08,3.50
2017,05,24,08,09,3.40
2017,05,24,08,10,5.10
2017,05,24,08,11,4.50
2017,05,24,08,12,3.00
2017,05,24,08,13,4.20
2017,05,24,08,14,4.20
2017,05,24,08,15,1.60
2017,05,24,08,16,4.20
2017,05,24,08,17,2.30
2017,05,24,08,18,4.90
2017,05,24,08,19,4.10
2017,05,24,08,20,3.70
2017,05,24,08,21,1.10
2017,05,24,08,22,3.20
2017,05,24,08,23,1.40
2017,05,24,08,24,0.90
2017,05,24,08,25,2.40
2017,05,24,08,26,4.80
2017,05,24,08,27,2.30
2017,05,24,08,28,0.10
2017,05,24,08,29,0.10
2017,05,24,08,30,0.00
2017,05,24,08,31,0.20
2017,05,24,08,32,4.50
2017,05,24,08,33,7.50
2017,05,24,08,34,6.30
2017,05,24,08,35,2.40
2017,05,24,08,36,0.00
2017,05,24,08,37,0.60
2017,05,24,08,38,1.70
2017,05,24,08,39,3.10
2017,05,24,08,40,5.10
2017,05,24,08,41,1.50
2017,05,24,08,42,3.10
2017,05,24,08,43,5.70
2017,05,24,08,44,4.50
2017,05,24,08,45,5.30
2017,05,24,08,46,6.60
2017,05,24,08,47,5.10
2017,05,24,08,48,5.40
2017,05,24,08,49,6.80
2017,05,24,08,50,3.20
2017,05,24,08,51,3.90
2017,05,24,08,52,3.80
2017,05,24,08,53,6.00
2017,05,24,08,54,1.80
2017,05,24,08,55,3.00
2017,05,24,08,56,2.80
2017,05,24,08,57,4.00
2017,05,24,08,58,3.60
2017,05,24,08,59,5.90
2017,05,24,09,00,3.10
2017,05,24,09,01,4.40
2017,05,24,09,02,4.30
2017,05,24,09,03,3.60
2017,05,24,09,04,3.00
2017,05,24,09,05,4.60
2017,05,24,09,06,4.70
2017,05,24,09,07,8.20
2017,05,24,09,08,6.70
2017,05,24,09,09,4.30
2017,05,24,09,10,1.80
2017,05,24,09,11,1.10
2017,05,24,09,12,4.60
2017,05,24,09,13,2.20
2017,05,24,09,14,3.30
2017,05,24,09,15,2.90
2017,05,24,09,16,1.00
2017,05,24,09,17,2.70
2017,05,24,09,18,5.60
2017,05,24,09,19,6.30
2017,05,24,09,20,1.90
2017,05,24,09,21,4.20
2017,05,24,09,22,5.70
2017,05,24,09,23,2.70
2017,05,24,09,24,4.90
2017,05,24,09,25,4.00
2017,05,24,09,26,2.70
2017,05,24,09,27,2.00
2017,05,24,09,28,2.60
2017,05,24,09,29,0.30
2017,05,24,09,30,4.20
2017,05,24,09,31,6.40
2017,05,24,09,32,7.80
2017,05,24,09,33,2.60
2017,05,24,09,34,3.40
2017,05,24,09,35,4.10
2017,05,24,09,36,3.10
2017,05,24,09,37,2.80
2017,05,24,09,38,3.80
2017,05,24,09,39,3.40
2017,05,24,09,40,1.80
2017,05,24,09,41,2.50
2017,05,24,09,42,4.50
2017,05,24,09,43,5.90
2017,05,24,09,44,5.10
2017,05,24,09,45,6.40
2017,05,24,09,46,10.00
2017,05,24,09,47,9.00
2017,05,24,09,48,8.40
2017,05,24,09,49,3.50
2017,05,24,09,50,4.10
2017,05,24,09,51,2.30
2017,05,24,09,52,6.60
2017,05,24,09,53,10.50
2017,05,24,09,54,8.60
2017,05,24,09,55,8.40
2017,05,24,09,56,9.30
2017,05,24,09,57,12.10
2017,05,24,09,58,6.40
2017,05,24,09,59,10.60
2017,05,24,10,00,11.40
2017,05,24,10,01,10.80
2017,05,24,10,02,7.30
2017,05,24,10,03,11.80
2017,05,24,10,04,11.60
2017,05,24,10,05,14.70
2017,05,24,10,06,10.50
2017,05,24,10,07,6.70
2017,05,24,10,08,7.40
2017,05,24,10,09,9.60
2017,05,24,10,10,13.00
2017,05,24,10,11,7.90
2017,05,24,10,12,7.90
2017,05,24,10,13,8.70
2017,05,24,10,14,6.30
2017,05,24,10,15,8.60
2017,05,24,10,16,8.80
2017,05,24,10,17,4.50
2017,05,24,10,18,11.30
2017,05,24,10,19,6.80
2017,05,24,10,20,6.80
2017,05,24,10,21,6.70
2017,05,24,10,22,6.70
2017,05,24,10,23,6.50
2017,05,24,10,24,9.60
2017,05,24,10,25,8.60
2017,05,24,10,26,8.40
2017,05,24,10,27,6.40
2017,05,24,10,28,10.40
2017,05,24,10,29,9.50
2017,05,24,10,30,11.70
2017,05,24,10,31,8.80
2017,05,24,10,32,9.40
2017,05,24,10,33,8.00
2017,05,24,10,34,9.60
2017,05,24,10,35,10.20
2017,05,24,10,36,6.60
2017,05,24,10,37,6.80
2017,05,24,10,38,13.00
2017,05,24,10,39,9.10
2017,05,24,10,40,10.10
2017,05,24,10,41,8.10
2017,05,24,10,42,8.40
2017,05,24,10,43,7.80
2017,05,24,10,44,11.60
2017,05,24,10,45,10.40
2017,05,24,10,46,10.30
2017,05,24,10,47,12.50
2017,05,24,10,48,9.70
2017,05,24,10,49,13.20
2017,05,24,10,50,15.10
2017,05,24,10,51,12.90
2017,05,24,10,52,14.70
2017,05,24,10,53,9.40
2017,05,24,10,54,11.60
2017,05,24,10,55,9.80
2017,05,24,10,56,10.90
2017,05,24,10,57,10.40
2017,05,24,10,58,15.70
2017,05,24,10,59,13.10
2017,05,24,11,00,16.20
2017,05,24,11,01,13.90
2017,05,24,11,02,13.60
2017,05,24,11,03,14.20
2017,05,24,11,04,11.60
2017,05,24,11,05,11.80
2017,05,24,11,06,12.00
2017,05,24,11,07,11.10
2017,05,24,11,08,11.90
2017,05,24,11,09,11.00
2017,05,24,11,10,6.60
2017,05,24,11,11,7.60
2017,05,24,11,12,11.30
2017,05,24,11,13,11.40
2017,05,24,11,14,10.50
2017,05,24,11,15,9.90
2017,05,24,11,16,8.40
2017,05,24,11,17,7.30
2017,05,24,11,18,10.40
2017,05,24,11,19,10.00
2017,05,24,11,20,8.50
2017,05,24,11,21,10.30
2017,05,24,11,22,13.40
2017,05,24,11,23,8.60
2017,05,24,11,24,7.90
2017,05,24,11,25,13.60
2017,05,24,11,26,13.00
2017,05,24,11,27,15.30
2017,05,24,11,28,10.70
2017,05,24,11,29,12.00
2017,05,24,11,30,14.00
2017,05,24,11,31,11.50
2017,05,24,11,32,13.80
2017,05,24,11,33,10.50
2017,05,24,11,34,11.40
2017,05,24,11,35,11.60
2017,05,24,11,36,11.10
2017,05,24,11,37,14.30
2017,05,24,11,38,12.90
2017,05,24,11,39,12.50
2017,05,24,11,40,22.20
2017,05,24,11,41,13.10
2017,05,24,11,42,10.30
2017,05,24,11,43,10.80
2017,05,24,11,44,17.60
2017,05,24,11,45,13.20
2017,05,24,11,46,12.10
2017,05,24,11,47,8.40
2017,05,24,11,48,12.00
2017,05,24,11,49,18.40
2017,05,24,11,50,13.50
2017,05,24,11,51,15.50
2017,05,24,11,52,11.50
2017,05,24,11,53,9.50
2017,05,24,11,54,13.00
2017,05,24,11,55,12.70
2017,05,24,11,56,13.40
2017,05,24,11,57,12.60
2017,05,24,11,58,12.20
2017,05,24,11,59,6.60
2017,05,24,12,00,7.70
2017,05,24,12,01,13.80
2017,05,24,12,02,13.60
2017,05,24,12,03,14.20
2017,05,24,12,04,18.70
2017,05,24,12,05,13.90
2017,05,24,12,06,15.60
2017,05,24,12,07,11.90
2017,05,24,12,08,15.20
2017,05,24,12,09,12.60
2017,05,24,12,10,14.60
2017,05,24,12,11,12.60
2017,05,24,12,12,13.50
2017,05,24,12,13,10.90
2017,05,24,12,14,13.40
2017,05,24,12,15,11.30
2017,05,24,12,16,12.20
2017,05,24,12,17,12.60
2017,05,24,12,18,9.10
2017,05,24,12,19,11.30
2017,05,24,12,20,13.00
2017,05,24,12,21,8.30
2017,05,24,12,22,10.90
2017,05,24,12,23,12.30
2017,05,24,12,24,9.60
2017,05,24,12,25,9.80
2017,05,24,12,26,12.30
2017,05,24,12,27,9.50
2017,05,24,12,28,8.00
2017,05,24,12,29,10.10
2017,05,24,12,30,12.20
2017,05,24,12,31,10.70
2017,05,24,12,32,11.20
2017,05,24,12,33,7.50
2017,05,24,12,34,6.30
2017,05,24,12,35,5.80
2017,05,24,12,36,3.70
2017,05,24,12,37,6.20
2017,05,24,12,38,4.00
2017,05,24,12,39,8.10
2017,05,24,12,40,4.90
2017,05,24,12,41,3.40
2017,05,24,12,42,3.50
2017,05,24,12,43,4.70
2017,05,24,12,44,4.00
2017,05,24,12,45,4.50
2017,05,24,12,46,2.30
2017,05,24,12,47,8.50
2017,05,24,12,48,8.50
2017,05,24,12,49,8.70
2017,05,24,12,50,7.70
2017,05,24,12,51,11.90
2017,05,24,12,52,8.90
2017,05,24,12,53,8.40
2017,05,24,12,54,13.00
2017,05,24,12,55,13.80
2017,05,24,12,56,10.10
2017,05,24,12,57,10.60
2017,05,24,12,58,12.40
2017,05,24,12,59,8.30
2017,05,24,13,00,7.20
2017,05,24,13,01,13.10
2017,05,24,13,02,9.70
2017,05,24,13,03,7.90
2017,05,24,13,04,7.60
2017,05,24,13,05,11.70
2017,05,24,13,06,7.60
2017,05,24,13,07,13.60
2017,05,24,13,08,13.00
2017,05,24,13,09,9.70
2017,05,24,13,10,10.60
2017,05,24,13,11,11.30
2017,05,24,13,12,14.30
2017,05,24,13,13,13.10
2017,05,24,13,14,13.60
2017,05,24,13,15,8.40
2017,05,24,13,16,14.60
2017,05,24,13,17,13.30
2017,05,24,13,18,13.00
2017,05,24,13,19,10.10
2017,05,24,13,20,9.40
2017,05,24,13,21,6.40
2017,05,24,13,22,6.80
2017,05,24,13,23,11.20
2017,05,24,13,24,13.30
2017,05,24,13,25,8.70
2017,05,24,13,26,12.00
2017,05,24,13,27,11.70
2017,05,24,13,28,8.90
2017,05,24,13,29,9.70
2017,05,24,13,30,10.50
2017,05,24,13,31,13.70
2017,05,24,13,32,11.90
2017,05,24,13,33,9.00
2017,05,24,13,34,4.80
2017,05,24,13,35,9.00
2017,05,24,13,36,12.90
2017,05,24,13,37,7.70
2017,05,24,13,38,8.40
2017,05,24,13,39,9.30
2017,05,24,13,40,6.80
2017,05,24,13,41,5.70
2017,05,24,13,42,6.80
2017,05,24,13,43,2.70
2017,05,24,13,44,8.50
2017,05,24,13,45,8.00
2017,05,24,13,46,3.80
2017,05,24,13,47,10.10
2017,05,24,13,48,9.00
2017,05,24,13,49,8.60
2017,05,24,13,50,6.80
2017,05,24,13,51,6.70
2017,05,24,13,52,8.80
2017,05,24,13,53,9.80
2017,05,24,13,54,8.70
2017,05,24,13,55,6.40
2017,05,24,13,56,5.80
2017,05,24,13,57,15.00
2017,05,24,13,58,8.10
2017,05,24,13,59,11.30
2017,05,24,14,00,6.10
2017,05,24,14,01,3.40
2017,05,24,14,02,9.70
2017,05,24,14,03,12.00
2017,05,24,14,04,5.10
2017,05,24,14,05,8.10
2017,05,24,14,06,9.20
2017,05,24,14,07,4.70
2017,05,24,14,08,9.10
2017,05,24,14,09,9.50
2017,05,24,14,10,14.80
2017,05,24,14,11,9.10
2017,05,24,14,12,6.00
2017,05,24,14,13,9.80
2017,05,24,14,14,15.90
2017,05,24,14,15,6.80
2017,05,24,14,16,10.10
2017,05,24,14,17,9.90
2017,05,24,14,18,8.50
2017,05,24,14,19,9.20
2017,05,24,14,20,9.40
2017,05,24,14,21,13.00
2017,05,24,14,22,13.00
2017,05,24,14,23,9.60
2017,05,24,14,24,13.00
2017,05,24,14,25,11.30
2017,05,24,14,26,15.70
2017,05,24,14,27,12.20
2017,05,24,14,28,16.30
2017,05,24,14,29,10.90
2017,05,24,14,30,12.80
2017,05,24,14,31,12.40
2017,05,24,14,32,7.20
2017,05,24,14,33,7.00
2017,05,24,14,34,8.10
2017,05,24,14,35,12.10
2017,05,24,14,36,10.80
2017,05,24,14,37,8.00
2017,05,24,14,38,5.10
2017,05,24,14,39,11.80
2017,05,24,14,40,8.80
2017,05,24,14,41,4.70
2017,05,24,14,42,11.10
2017,05,24,14,43,8.30
2017,05,24,14,44,8.90
2017,05,24,14,45,13.40
2017,05,24,14,46,10.60
2017,05,24,14,47,6.50
2017,05,24,14,48,11.80
2017,05,24,14,49,8.40
2017,05,24,14,50,5.40
2017,05,24,14,51,11.40
2017,05,24,14,52,9.90
2017,05,24,14,53,12.80
2017,05,24,14,54,16.30
2017,05,24,14,55,7.30
2017,05,24,14,56,5.50
2017,05,24,14,57,9.20
2017,05,24,14,58,7.60
2017,05,24,14,59,10.40
2017,05,24,15,00,11.10
2017,05,24,15,01,10.20
2017,05,24,15,02,13.40
2017,05,24,15,03,11.80
2017,05,24,15,04,11.80
2017,05,24,15,05,9.60
2017,05,24,15,06,10.90
2017,05,24,15,07,9.70
2017,05,24,15,08,12.30
2017,05,24,15,09,12.10
2017,05,24,15,10,12.20
2017,05,24,15,11,11.80
2017,05,24,15,12,12.90
2017,05,24,15,13,11.40
2017,05,24,15,14,12.90
2017,05,24,15,15,11.50
2017,05,24,15,16,9.30
2017,05,24,15,17,10.90
2017,05,24,15,18,12.20
2017,05,24,15,19,12.70
2017,05,24,15,20,8.80
2017,05,24,15,21,11.60
2017,05,24,15,22,8.40
2017,05,24,15,23,13.70
2017,05,24,15,24,12.00
2017,05,24,15,25,8.00
2017,05,24,15,26,12.90
2017,05,24,15,27,14.30
2017,05,24,15,28,13.00
2017,05,24,15,29,9.70
2017,05,24,15,30,11.30
2017,05,24,15,31,12.40
2017,05,24,15,32,12.90
2017,05,24,15,33,12.30
2017,05,24,15,34,7.60
2017,05,24,15,35,9.40
2017,05,24,15,36,11.50
2017,05,24,15,37,13.80
2017,05,24,15,38,13.90
2017,05,24,15,39,9.50
2017,05,24,15,40,10.70
2017,05,24,15,41,12.30
2017,05,24,15,42,11.40
2017,05,24,15,43,9.90
2017,05,24,15,44,8.50
2017,05,24,15,45,8.30
2017,05,24,15,46,9.70
2017,05,24,15,47,10.10
2017,05,24,15,48,8.20
2017,05,24,15,49,10.40
2017,05,24,15,50,12.20
2017,05,24,15,51,11.50
2017,05,24,15,52,9.80
2017,05,24,15,53,9.30
2017,05,24,15,54,11.90
2017,05,24,15,55,12.20
2017,05,24,15,56,13.40
2017,05,24,15,57,13.50
2017,05,24,15,58,13.00
2017,05,24,15,59,13.90
2017,05,24,16,00,12.10
2017,05,24,16,01,10.70
2017,05,24,16,02,9.60
2017,05,24,16,03,9.30
2017,05,24,16,04,8.70
2017,05,24,16,05,10.40
2017,05,24,16,06,10.70
2017,05,24,16,07,9.80
2017,05,24,16,08,7.20
2017,05,24,16,09,8.30
2017,05,24,16,10,7.20
2017,05,24,16,11,5.30
2017,05,24,16,12,7.70
2017,05,24,16,13,6.80
2017,05,24,16,14,5.70
2017,05,24,16,15,3.60
2017,05,24,16,16,5.20
2017,05,24,16,17,8.30
2017,05,24,16,18,8.10
2017,05,24,16,19,6.50
2017,05,24,16,20,6.80
2017,05,24,16,21,6.00
2017,05,24,16,22,4.80
2017,05,24,16,23,6.10
2017,05,24,16,24,7.40
2017,05,24,16,25,5.80
2017,05,24,16,26,1.10
2017,05,24,16,27,1.80
2017,05,24,16,28,8.00
2017,05,24,16,29,5.00
2017,05,24,16,30,4.50
2017,05,24,16,31,3.70
2017,05,24,16,32,3.10
2017,05,24,16,33,3.10
2017,05,24,16,34,1.10
2017,05,24,16,35,2.30
2017,05,24,16,36,4.70
2017,05,24,16,37,1.10
2017,05,24,16,38,1.30
2017,05,24,16,39,4.90
2017,05,24,16,40,3.00
2017,05,24,16,41,2.00
2017,05,24,16,42,5.30
2017,05,24,16,43,4.70
2017,05,24,16,44,4.80
2017,05,24,16,45,6.60
2017,05,24,16,46,4.30
2017,05,24,16,47,6.30
2017,05,24,16,48,4.90
2017,05,24,16,49,2.50
2017,05,24,16,50,0.70
2017,05,24,16,51,1.60
2017,05,24,16,52,2.30
2017,05,24,16,53,3.70
2017,05,24,16,54,5.90
2017,05,24,16,55,7.80
2017,05,24,16,56,7.10
2017,05,24,16,57,5.90
2017,05,24,16,58,9.50
2017,05,24,16,59,5.30
2017,05,24,17,00,4.80
2017,05,24,17,01,7.50
2017,05,24,17,02,4.50
2017,05,24,17,03,1.80
2017,05,24,17,04,5.70
2017,05,24,17,05,6.90
2017,05,24,17,06,9.30
2017,05,24,17,07,9.70
2017,05,24,17,08,7.00
2017,05,24,17,09,5.30
2017,05,24,17,10,6.10
2017,05,24,17,11,5.80
2017,05,24,17,12,6.20
2017,05,24,17,13,7.10
2017,05,24,17,14,6.80
2017,05,24,17,15,5.60
2017,05,24,17,16,4.90
2017,05,24,17,17,6.20
2017,05,24,17,18,3.40
2017,05,24,17,19,3.00
2017,05,24,17,20,2.10
2017,05,24,17,21,4.30
2017,05,24,17,22,3.90
2017,05,24,17,23,1.60
2017,05,24,17,24,2.20
2017,05,24,17,25,3.60
2017,05,24,17,26,8.90
2017,05,24,17,27,4.80
2017,05,24,17,28,0.60
2017,05,24,17,29,2.40
2017,05,24,17,30,3.60
2017,05,24,17,31,2.50
2017,05,24,17,32,3.80
2017,05,24,17,33,5.10
2017,05,24,17,34,5.40
2017,05,24,17,35,7.50
2017,05,24,17,36,7.60
2017,05,24,17,37,7.30
2017,05,24,17,38,4.10
2017,05,24,17,39,5.60
2017,05,24,17,40,4.50
2017,05,24,17,41,4.20
2017,05,24,17,42,4.30
2017,05,24,17,43,2.70
2017,05,24,17,44,1.90
2017,05,24,17,45,5.60
2017,05,24,17,46,4.30
2017,05,24,17,47,6.20
2017,05,24,17,48,6.40
2017,05,24,17,49,3.80
2017,05,24,17,50,0.70
2017,05,24,17,51,1.40
2017,05,24,17,52,0.60
2017,05,24,17,53,0.50
2017,05,24,17,54,0.80
2017,05,24,17,55,2.20
2017,05,24,17,56,4.20